{"data":{"norad_id":59604,"epoch":"2026-09-21T14:04:26.547168Z","epoch_age_seconds":74671,"freshness":"FRESH","line1":"1 59604U 24080D   26264.58641837  .00000092  00000+0  12857-4 0  9997","line2":"2 59604  43.0027   8.0332 0001213 270.0491  90.0222 15.27578875134534","mean_motion":15.27578875,"eccentricity":0.0001213,"inclination_deg":43.0027,"raan_deg":8.0332,"arg_perigee_deg":270.0491,"mean_anomaly_deg":90.0222,"bstar":1.2857e-5,"rev_number":13453,"period_min":94.266818137296,"perigee_km":482.22020241437,"apogee_km":483.8847269785,"semimajor_km":6861.1894646964,"source":"CELESTRAK","updated_at":"2026-09-22T09:00:49.009286Z"}}